Retour au catalogue

DELTA 1 DEB

ActifPO
NORAD 12288·DEBRIS·🇺🇸 United States

Lancé Mar 5, 1978 depuis Vandenberg Space Force Base

Loading…

Prochains Passages (prochaines 24 heures)

TLE

FraisSource: Space-Track

Époque: Sep 13, 2026, 10:41 UTC

1 12288U 78026EG  26256.44575637  .00000660  00000-0  30860-3 0  9998
2 12288  99.1949 249.2532 0076226 267.0989 256.6477 14.22507356343658

Suivez DELTA 1 DEB en temps réel avec AllMySat

Download on the App Store